Time,TemperatureF,DewpointF,PressureIn,WindDirection,WindDirectionDegrees,WindSpeedMPH,WindSpeedGustMPH,Humidity,HourlyPrecipIn,Conditions,Clouds,dailyrainin,SoftwareType,DateUTC
2013-04-28 00:01:00,53.0,26.0,-100.00,SE,129,10.0,11.0,34,-99.99,,,-99.99,,2013-04-28 06:01:00,
2013-04-28 00:12:00,53.0,25.0,-100.00,SE,139,10.0,12.0,33,-99.99,,,-99.99,,2013-04-28 06:12:00,
2013-04-28 00:21:00,53.0,25.0,-100.00,SSE,148,10.0,11.0,33,-99.99,,,-99.99,,2013-04-28 06:21:00,
2013-04-28 00:32:00,53.0,25.0,-100.00,SE,139,9.0,11.0,33,-99.99,,,-99.99,,2013-04-28 06:32:00,
2013-04-28 00:42:00,53.0,24.0,-100.00,SSE,151,9.0,10.0,32,-99.99,,,-99.99,,2013-04-28 06:42:00,
2013-04-28 00:51:00,54.0,24.0,-100.00,SSE,151,9.0,12.0,31,-99.99,,,-99.99,,2013-04-28 06:51:00,
2013-04-28 01:01:00,51.0,25.0,-100.00,SE,146,9.0,11.0,35,-99.99,,,-99.99,,2013-04-28 07:01:00,
2013-04-28 01:11:00,51.0,25.0,-100.00,SSE,152,9.0,10.0,36,-99.99,,,-99.99,,2013-04-28 07:11:00,
2013-04-28 01:21:00,50.0,25.0,-100.00,SE,138,10.0,11.0,36,-99.99,,,-99.99,,2013-04-28 07:21:00,
2013-04-28 01:31:00,51.0,24.0,-100.00,SSE,147,9.0,10.0,35,-99.99,,,-99.99,,2013-04-28 07:31:00,
2013-04-28 01:42:00,51.0,24.0,-100.00,SE,127,11.0,11.0,34,-99.99,,,-99.99,,2013-04-28 07:42:00,
2013-04-28 01:52:00,52.0,24.0,-100.00,SSE,147,11.0,14.0,33,-99.99,,,-99.99,,2013-04-28 07:52:00,
2013-04-28 02:01:00,52.0,24.0,-100.00,SSE,148,12.0,14.0,33,-99.99,,,-99.99,,2013-04-28 08:01:00,
2013-04-28 02:11:00,51.0,24.0,-100.00,SSE,148,11.0,13.0,35,-99.99,,,-99.99,,2013-04-28 08:11:00,
2013-04-28 02:21:00,50.0,25.0,-100.00,SSE,152,10.0,11.0,36,-99.99,,,-99.99,,2013-04-28 08:21:00,
2013-04-28 02:32:00,49.0,25.0,-100.00,SE,145,10.0,12.0,38,-99.99,,,-99.99,,2013-04-28 08:32:00,
2013-04-28 02:42:00,49.0,24.0,-100.00,SE,135,10.0,12.0,38,-99.99,,,-99.99,,2013-04-28 08:42:00,
2013-04-28 02:52:00,49.0,24.0,-100.00,SE,146,10.0,12.0,36,-99.99,,,-99.99,,2013-04-28 08:52:00,
2013-04-28 03:01:00,50.0,23.0,-100.00,SE,134,13.0,14.0,34,-99.99,,,-99.99,,2013-04-28 09:01:00,
2013-04-28 03:11:00,51.0,23.0,-100.00,SSE,149,14.0,15.0,33,-99.99,,,-99.99,,2013-04-28 09:11:00,
2013-04-28 03:21:00,49.0,24.0,-100.00,SE,141,11.0,13.0,36,-99.99,,,-99.99,,2013-04-28 09:21:00,
2013-04-28 03:32:00,49.0,24.0,-100.00,SSE,149,11.0,13.0,37,-99.99,,,-99.99,,2013-04-28 09:32:00,
2013-04-28 03:42:00,48.0,24.0,-100.00,SE,146,9.0,11.0,39,-99.99,,,-99.99,,2013-04-28 09:42:00,
2013-04-28 03:53:00,47.0,25.0,-100.00,SSE,164,9.0,10.0,40,-99.99,,,-99.99,,2013-04-28 09:53:00,
2013-04-28 04:02:00,49.0,24.0,-100.00,SSE,159,6.0,9.0,36,-99.99,,,-99.99,,2013-04-28 10:02:00,
2013-04-28 04:12:00,48.0,24.0,-100.00,SE,133,11.0,13.0,39,-99.99,,,-99.99,,2013-04-28 10:12:00,
2013-04-28 04:22:00,47.0,25.0,-100.00,SE,137,11.0,12.0,41,-99.99,,,-99.99,,2013-04-28 10:22:00,
2013-04-28 04:32:00,47.0,25.0,-100.00,SE,136,11.0,12.0,41,-99.99,,,-99.99,,2013-04-28 10:32:00,
2013-04-28 04:42:00,48.0,24.0,-100.00,SE,134,11.0,13.0,39,-99.99,,,-99.99,,2013-04-28 10:42:00,
2013-04-28 04:52:00,47.0,24.0,-100.00,SE,133,10.0,12.0,40,-99.99,,,-99.99,,2013-04-28 10:52:00,
2013-04-28 05:02:00,48.0,25.0,-100.00,SE,138,11.0,13.0,40,-99.99,,,-99.99,,2013-04-28 11:02:00,
2013-04-28 05:11:00,48.0,25.0,-100.00,SE,138,11.0,13.0,40,-99.99,,,-99.99,,2013-04-28 11:11:00,
2013-04-28 05:21:00,47.0,26.0,-100.00,SE,141,10.0,13.0,42,-99.99,,,-99.99,,2013-04-28 11:21:00,
2013-04-28 05:32:00,47.0,26.0,-100.00,SE,146,11.0,14.0,42,-99.99,,,-99.99,,2013-04-28 11:32:00,
2013-04-28 05:42:00,46.0,26.0,-100.00,SE,146,10.0,13.0,44,-99.99,,,-99.99,,2013-04-28 11:42:00,
2013-04-28 05:52:00,46.0,26.0,-100.00,SSE,150,9.0,12.0,45,-99.99,,,-99.99,,2013-04-28 11:52:00,
2013-04-28 06:01:00,46.0,25.0,-100.00,SSE,147,10.0,12.0,43,-99.99,,,-99.99,,2013-04-28 12:01:00,
2013-04-28 06:11:00,46.0,25.0,-100.00,SSE,153,10.0,11.0,44,-99.99,,,-99.99,,2013-04-28 12:11:00,
2013-04-28 06:21:00,45.0,25.0,-100.00,SE,139,10.0,11.0,45,-99.99,,,-99.99,,2013-04-28 12:21:00,
2013-04-28 06:32:00,46.0,25.0,-100.00,SSE,147,11.0,12.0,44,-99.99,,,-99.99,,2013-04-28 12:32:00,
2013-04-28 06:42:00,46.0,25.0,-100.00,SE,137,11.0,13.0,44,-99.99,,,-99.99,,2013-04-28 12:42:00,
2013-04-28 06:51:00,46.0,25.0,-100.00,SE,144,9.0,11.0,44,-99.99,,,-99.99,,2013-04-28 12:51:00,
2013-04-28 07:01:00,46.0,25.0,-100.00,SE,137,10.0,12.0,43,-99.99,,,-99.99,,2013-04-28 13:01:00,
2013-04-28 07:11:00,46.0,25.0,-100.00,SSE,147,11.0,13.0,43,-99.99,,,-99.99,,2013-04-28 13:11:00,
2013-04-28 07:21:00,46.0,25.0,-100.00,SSE,149,12.0,13.0,42,-99.99,,,-99.99,,2013-04-28 13:21:00,
2013-04-28 07:31:00,46.0,25.0,-100.00,SSE,152,11.0,13.0,42,-99.99,,,-99.99,,2013-04-28 13:31:00,
2013-04-28 07:42:00,46.0,25.0,-100.00,SSE,151,13.0,15.0,43,-99.99,,,-99.99,,2013-04-28 13:42:00,
2013-04-28 07:52:00,47.0,25.0,-100.00,SSE,150,11.0,12.0,42,-99.99,,,-99.99,,2013-04-28 13:52:00,
2013-04-28 08:01:00,46.0,26.0,-100.00,SE,131,9.0,11.0,44,-99.99,,,-99.99,,2013-04-28 14:01:00,
2013-04-28 08:11:00,47.0,25.0,-100.00,SE,141,10.0,12.0,42,-99.99,,,-99.99,,2013-04-28 14:11:00,
2013-04-28 08:21:00,48.0,25.0,-100.00,SSE,151,10.0,12.0,40,-99.99,,,-99.99,,2013-04-28 14:21:00,
2013-04-28 08:31:00,49.0,26.0,-100.00,SE,145,9.0,11.0,40,-99.99,,,-99.99,,2013-04-28 14:31:00,
2013-04-28 08:41:00,49.0,26.0,-100.00,SSE,153,10.0,11.0,41,-99.99,,,-99.99,,2013-04-28 14:41:00,
2013-04-28 08:51:00,50.0,25.0,-100.00,SSE,157,9.0,11.0,38,-99.99,,,-99.99,,2013-04-28 14:51:00,
2013-04-28 09:01:00,51.0,25.0,-100.00,SSE,158,10.0,11.0,37,-99.99,,,-99.99,,2013-04-28 15:01:00,
2013-04-28 09:12:00,51.0,26.0,-100.00,SSE,154,12.0,12.0,37,-99.99,,,-99.99,,2013-04-28 15:12:00,
2013-04-28 09:21:00,52.0,27.0,-100.00,SSE,156,11.0,13.0,37,-99.99,,,-99.99,,2013-04-28 15:21:00,
2013-04-28 09:32:00,54.0,28.0,-100.00,SSE,163,9.0,12.0,36,-99.99,,,-99.99,,2013-04-28 15:32:00,
2013-04-28 09:42:00,56.0,27.0,-100.00,SSE,159,11.0,12.0,33,-99.99,,,-99.99,,2013-04-28 15:42:00,
2013-04-28 09:53:00,57.0,28.0,-100.00,SSE,159,11.0,12.0,32,-99.99,,,-99.99,,2013-04-28 15:53:00,
2013-04-28 10:03:00,59.0,30.0,-100.00,SSE,154,8.0,12.0,33,-99.99,,,-99.99,,2013-04-28 16:03:00,
2013-04-28 10:13:00,61.0,28.0,-100.00,South,174,10.0,13.0,28,-99.99,,,-99.99,,2013-04-28 16:13:00,
2013-04-28 10:23:00,62.0,26.0,-100.00,South,175,10.0,15.0,24,-99.99,,,-99.99,,2013-04-28 16:23:00,
2013-04-28 10:32:00,62.0,24.0,-100.00,South,184,13.0,16.0,22,-99.99,,,-99.99,,2013-04-28 16:32:00,
2013-04-28 10:42:00,63.0,24.0,-100.00,South,180,15.0,19.0,21,-99.99,,,-99.99,,2013-04-28 16:42:00,
2013-04-28 10:52:00,64.0,26.0,-100.00,South,184,14.0,18.0,23,-99.99,,,-99.99,,2013-04-28 16:52:00,
2013-04-28 11:02:00,65.0,25.0,-100.00,South,189,12.0,18.0,21,-99.99,,,-99.99,,2013-04-28 17:02:00,
2013-04-28 11:12:00,67.0,25.0,-100.00,South,187,13.0,16.0,20,-99.99,,,-99.99,,2013-04-28 17:12:00,
2013-04-28 11:21:00,66.0,21.0,-100.00,South,187,15.0,17.0,17,-99.99,,,-99.99,,2013-04-28 17:21:00,
2013-04-28 11:32:00,68.0,22.0,-100.00,SSW,192,11.0,15.0,17,-99.99,,,-99.99,,2013-04-28 17:32:00,
2013-04-28 11:42:00,69.0,20.0,-100.00,SSW,199,10.0,16.0,15,-99.99,,,-99.99,,2013-04-28 17:42:00,
2013-04-28 11:51:00,69.0,19.0,-100.00,South,187,13.0,18.0,15,-99.99,,,-99.99,,2013-04-28 17:51:00,
2013-04-28 12:01:00,69.0,20.0,-100.00,South,178,15.0,17.0,15,-99.99,,,-99.99,,2013-04-28 18:01:00,
2013-04-28 12:12:00,70.0,20.0,-100.00,South,173,14.0,16.0,14,-99.99,,,-99.99,,2013-04-28 18:12:00,
2013-04-28 12:22:00,70.0,20.0,-100.00,South,177,14.0,18.0,14,-99.99,,,-99.99,,2013-04-28 18:22:00,
2013-04-28 12:32:00,70.0,20.0,-100.00,South,180,13.0,15.0,14,-99.99,,,-99.99,,2013-04-28 18:32:00,
2013-04-28 12:42:00,71.0,24.0,-100.00,SSE,165,11.0,16.0,17,-99.99,,,-99.99,,2013-04-28 18:42:00,
2013-04-28 12:51:00,72.0,21.0,-100.00,SSE,167,11.0,15.0,14,-99.99,,,-99.99,,2013-04-28 18:51:00,
2013-04-28 13:01:00,72.0,22.0,-100.00,South,175,11.0,13.0,14,-99.99,,,-99.99,,2013-04-28 19:01:00,
2013-04-28 13:11:00,72.0,23.0,-100.00,SSE,163,12.0,15.0,15,-99.99,,,-99.99,,2013-04-28 19:11:00,
2013-04-28 13:21:00,73.0,20.0,-100.00,South,175,11.0,14.0,13,-99.99,,,-99.99,,2013-04-28 19:21:00,
2013-04-28 13:31:00,73.0,23.0,-100.00,SSE,166,12.0,15.0,15,-99.99,,,-99.99,,2013-04-28 19:31:00,
2013-04-28 13:41:00,72.0,22.0,-100.00,SSE,166,11.0,19.0,15,-99.99,,,-99.99,,2013-04-28 19:41:00,
2013-04-28 13:52:00,73.0,25.0,-100.00,South,172,10.0,19.0,16,-99.99,,,-99.99,,2013-04-28 19:52:00,
2013-04-28 14:01:00,73.0,21.0,-100.00,SSE,159,9.0,15.0,14,-99.99,,,-99.99,,2013-04-28 20:01:00,
2013-04-28 14:11:00,73.0,24.0,-100.00,SSW,203,8.0,16.0,15,-99.99,,,-99.99,,2013-04-28 20:11:00,
2013-04-28 14:22:00,73.0,23.0,-100.00,South,171,12.0,16.0,15,-99.99,,,-99.99,,2013-04-28 20:22:00,
2013-04-28 14:32:00,74.0,23.0,-100.00,SE,135,11.0,15.0,14,-99.99,,,-99.99,,2013-04-28 20:32:00,
2013-04-28 14:41:00,74.0,24.0,-100.00,SSE,160,13.0,22.0,15,-99.99,,,-99.99,,2013-04-28 20:41:00,
2013-04-28 14:51:00,75.0,25.0,-100.00,South,174,10.0,15.0,15,-99.99,,,-99.99,,2013-04-28 20:51:00,
2013-04-28 15:01:00,74.0,25.0,-100.00,SW,216,4.0,12.0,15,-99.99,,,-99.99,,2013-04-28 21:01:00,
2013-04-28 15:11:00,75.0,22.0,-100.00,South,183,6.0,7.0,13,-99.99,,,-99.99,,2013-04-28 21:11:00,
2013-04-28 15:21:00,74.0,24.0,-100.00,WNW,283,9.0,13.0,15,-99.99,,,-99.99,,2013-04-28 21:21:00,
2013-04-28 15:32:00,74.0,22.0,-100.00,NW,323,4.0,10.0,13,-99.99,,,-99.99,,2013-04-28 21:32:00,
2013-04-28 15:42:00,74.0,21.0,-100.00,WNW,299,4.0,11.0,13,-99.99,,,-99.99,,2013-04-28 21:42:00,
2013-04-28 15:52:00,75.0,23.0,-100.00,NW,317,10.0,16.0,14,-99.99,,,-99.99,,2013-04-28 21:52:00,
2013-04-28 16:02:00,76.0,22.0,-100.00,WNW,293,2.0,10.0,13,-99.99,,,-99.99,,2013-04-28 22:02:00,
2013-04-28 16:12:00,75.0,22.0,-100.00,West,262,11.0,15.0,13,-99.99,,,-99.99,,2013-04-28 22:12:00,
2013-04-28 16:22:00,76.0,22.0,-100.00,WSW,257,3.0,6.0,12,-99.99,,,-99.99,,2013-04-28 22:22:00,
2013-04-28 16:33:00,74.0,26.0,-100.00,North,359,6.0,12.0,16,-99.99,,,-99.99,,2013-04-28 22:33:00,
2013-04-28 16:42:00,73.0,25.0,-100.00,North,1,10.0,12.0,16,-99.99,,,-99.99,,2013-04-28 22:42:00,
2013-04-28 16:52:00,75.0,21.0,-100.00,NNW,333,15.0,20.0,13,-99.99,,,-99.99,,2013-04-28 22:52:00,
2013-04-28 17:02:00,74.0,21.0,-100.00,NNW,334,18.0,21.0,13,-99.99,,,-99.99,,2013-04-28 23:02:00,
2013-04-28 17:11:00,74.0,22.0,-100.00,NW,326,11.0,20.0,14,-99.99,,,-99.99,,2013-04-28 23:11:00,
2013-04-28 17:21:00,74.0,22.0,-100.00,NW,326,11.0,20.0,14,-99.99,,,-99.99,,2013-04-28 23:21:00,
2013-04-28 17:32:00,74.0,22.0,-100.00,NW,326,11.0,20.0,14,-99.99,,,-99.99,,2013-04-28 23:32:00,
2013-04-28 17:41:00,72.0,30.0,-100.00,NNE,25,11.0,17.0,20,-99.99,,,-99.99,,2013-04-28 23:41:00,
2013-04-28 17:52:00,71.0,29.0,-100.00,NE,34,10.0,13.0,21,-99.99,,,-99.99,,2013-04-28 23:52:00,
2013-04-28 18:01:00,72.0,29.0,-100.00,NE,50,9.0,14.0,20,-99.99,,,-99.99,,2013-04-29 00:01:00,
2013-04-28 18:11:00,73.0,26.0,-100.00,North,357,10.0,14.0,17,-99.99,,,-99.99,,2013-04-29 00:11:00,
2013-04-28 18:22:00,73.0,27.0,-100.00,North,10,10.0,17.0,18,-99.99,,,-99.99,,2013-04-29 00:22:00,
2013-04-28 18:32:00,72.0,28.0,-100.00,NE,50,8.0,11.0,19,-99.99,,,-99.99,,2013-04-29 00:32:00,
2013-04-28 18:41:00,72.0,28.0,-100.00,NE,50,8.0,11.0,19,-99.99,,,-99.99,,2013-04-29 00:41:00,
2013-04-28 18:52:00,73.0,25.0,-100.00,WNW,294,4.0,8.0,16,-99.99,,,-99.99,,2013-04-29 00:52:00,
2013-04-28 19:01:00,74.0,27.0,-100.00,NNE,29,4.0,6.0,17,-99.99,,,-99.99,,2013-04-29 01:01:00,
2013-04-28 19:12:00,73.0,32.0,-100.00,NNE,26,5.0,11.0,21,-99.99,,,-99.99,,2013-04-29 01:12:00,
2013-04-28 19:21:00,71.0,32.0,-100.00,North,3,9.0,13.0,23,-99.99,,,-99.99,,2013-04-29 01:21:00,
2013-04-28 19:32:00,69.0,33.0,-100.00,NNE,30,9.0,14.0,26,-99.99,,,-99.99,,2013-04-29 01:32:00,
2013-04-28 19:41:00,67.0,32.0,-100.00,NNE,26,10.0,13.0,27,-99.99,,,-99.99,,2013-04-29 01:41:00,
2013-04-28 19:52:00,66.0,32.0,-100.00,NNE,22,8.0,12.0,27,-99.99,,,-99.99,,2013-04-29 01:52:00,
2013-04-28 20:01:00,65.0,31.0,-100.00,NNE,29,9.0,11.0,28,-99.99,,,-99.99,,2013-04-29 02:01:00,
2013-04-28 20:11:00,66.0,30.0,-100.00,NE,38,10.0,13.0,25,-99.99,,,-99.99,,2013-04-29 02:11:00,
2013-04-28 20:21:00,66.0,28.0,-100.00,NE,37,9.0,12.0,24,-99.99,,,-99.99,,2013-04-29 02:21:00,
2013-04-28 20:31:00,66.0,28.0,-100.00,NE,48,8.0,12.0,24,-99.99,,,-99.99,,2013-04-29 02:31:00,
2013-04-28 20:41:00,65.0,28.0,-100.00,NE,50,8.0,10.0,24,-99.99,,,-99.99,,2013-04-29 02:41:00,
2013-04-28 20:51:00,65.0,27.0,-100.00,NE,53,9.0,11.0,23,-99.99,,,-99.99,,2013-04-29 02:51:00,
2013-04-28 21:01:00,65.0,27.0,-100.00,NW,324,6.0,9.0,23,-99.99,,,-99.99,,2013-04-29 03:01:00,
2013-04-28 21:12:00,63.0,27.0,-100.00,ENE,65,7.0,8.0,25,-99.99,,,-99.99,,2013-04-29 03:12:00,
2013-04-28 21:21:00,64.0,27.0,-100.00,East,79,6.0,8.0,24,-99.99,,,-99.99,,2013-04-29 03:21:00,
2013-04-28 21:33:00,63.0,27.0,-100.00,East,81,3.0,7.0,25,-99.99,,,-99.99,,2013-04-29 03:33:00,
2013-04-28 21:42:00,63.0,26.0,-100.00,ENE,71,3.0,3.0,24,-99.99,,,-99.99,,2013-04-29 03:42:00,
2013-04-28 21:52:00,64.0,26.0,-100.00,NE,42,0.0,1.0,23,-99.99,,,-99.99,,2013-04-29 03:52:00,
2013-04-28 22:02:00,62.0,26.0,-100.00,ESE,110,2.0,4.0,25,-99.99,,,-99.99,,2013-04-29 04:02:00,
2013-04-28 22:12:00,59.0,27.0,-100.00,ESE,104,0.0,2.0,28,-99.99,,,-99.99,,2013-04-29 04:12:00,
2013-04-28 22:23:00,60.0,28.0,-100.00,East,98,1.0,4.0,29,-99.99,,,-99.99,,2013-04-29 04:23:00,
2013-04-28 22:32:00,60.0,27.0,-100.00,East,88,7.0,7.0,27,-99.99,,,-99.99,,2013-04-29 04:32:00,
2013-04-28 22:43:00,59.0,27.0,-100.00,ENE,76,2.0,5.0,28,-99.99,,,-99.99,,2013-04-29 04:43:00,
2013-04-28 22:52:00,57.0,28.0,-100.00,East,92,2.0,3.0,32,-99.99,,,-99.99,,2013-04-29 04:52:00,
2013-04-28 23:02:00,56.0,29.0,-100.00,East,85,3.0,4.0,34,-99.99,,,-99.99,,2013-04-29 05:02:00,
2013-04-28 23:12:00,56.0,28.0,-100.00,East,94,4.0,5.0,32,-99.99,,,-99.99,,2013-04-29 05:12:00,
2013-04-28 23:22:00,55.0,27.0,-100.00,ESE,114,5.0,5.0,33,-99.99,,,-99.99,,2013-04-29 05:22:00,
2013-04-28 23:32:00,54.0,27.0,-100.00,East,98,4.0,5.0,35,-99.99,,,-99.99,,2013-04-29 05:32:00,
2013-04-28 23:42:00,57.0,27.0,-100.00,ESE,115,5.0,5.0,31,-99.99,,,-99.99,,2013-04-29 05:42:00,
2013-04-28 23:52:00,58.0,26.0,-100.00,ESE,122,2.0,4.0,28,-99.99,,,-99.99,,2013-04-29 05:52:00,